TimePST,TemperatureF,Dew PointF,Humidity,Sea Level PressureIn,VisibilityMPH,Wind Direction,Wind SpeedMPH,Gust SpeedMPH,PrecipitationIn,Events,Conditions,WindDirDegrees,DateUTC
12:36 AM,15.8,12.2,86,30.25,7.0,Calm,Calm,-,0.00,Snow,Light Snow,0,2013-01-13 08:36:00
12:53 AM,17.1,12.9,84,30.37,7.0,Calm,Calm,-,0.00,Snow,Light Snow,0,2013-01-13 08:53:00
1:46 AM,15.8,12.2,86,30.27,2.5,SSE,3.5,-,0.00,Snow,Light Snow,160,2013-01-13 09:46:00
1:53 AM,16.0,12.0,84,30.38,2.0,SSE,4.6,-,0.00,Snow,Light Snow,160,2013-01-13 09:53:00
2:53 AM,15.1,12.0,88,30.38,2.0,SSE,4.6,-,0.01,Snow,Light Snow,160,2013-01-13 10:53:00
3:34 AM,15.8,10.4,79,30.27,4.0,South,3.5,-,0.00,Snow,Light Snow,170,2013-01-13 11:34:00
3:53 AM,15.1,12.0,88,30.39,5.0,SSE,3.5,-,0.00,Snow,Light Snow,150,2013-01-13 11:53:00
4:53 AM,14.0,10.9,88,30.40,5.0,SE,4.6,-,0.00,Snow,Light Snow,130,2013-01-13 12:53:00
5:53 AM,14.0,10.9,88,30.42,6.0,Calm,Calm,-,0.00,Snow,Light Snow,0,2013-01-13 13:53:00
6:15 AM,14.0,10.4,86,30.30,6.0,Calm,Calm,-,0.00,,Overcast,0,2013-01-13 14:15:00
6:53 AM,14.0,12.0,92,30.45,6.0,Calm,Calm,-,0.00,,Overcast,0,2013-01-13 14:53:00
7:53 AM,15.1,12.0,88,30.48,3.0,North,4.6,-,0.00,Snow,Light Snow,10,2013-01-13 15:53:00
7:58 AM,15.8,12.2,86,30.34,2.5,NE,3.5,-,0.00,Snow,Light Snow,40,2013-01-13 15:58:00
8:53 AM,16.0,12.0,84,30.49,2.5,Calm,Calm,-,0.00,Snow,Light Snow,0,2013-01-13 16:53:00
9:18 AM,15.8,12.2,86,30.35,5.0,Calm,Calm,-,0.00,,Scattered Clouds,0,2013-01-13 17:18:00
9:53 AM,16.0,14.0,92,30.48,5.0,Calm,Calm,-,0.00,,Mostly Cloudy,0,2013-01-13 17:53:00
10:33 AM,17.6,12.2,79,30.35,5.0,Calm,Calm,-,N/A,,Mostly Cloudy,0,2013-01-13 18:33:00
10:53 AM,17.1,15.1,92,30.47,6.0,Calm,Calm,-,N/A,,Mostly Cloudy,0,2013-01-13 18:53:00
11:11 AM,17.6,14.0,86,30.35,5.0,Calm,Calm,-,N/A,,Mostly Cloudy,0,2013-01-13 19:11:00
11:53 AM,18.0,15.1,88,30.46,6.0,Calm,Calm,-,N/A,,Mostly Cloudy,0,2013-01-13 19:53:00
12:53 PM,19.0,15.1,85,30.44,10.0,Calm,Calm,-,N/A,,Scattered Clouds,0,2013-01-13 20:53:00
1:53 PM,19.9,14.0,78,30.44,10.0,Calm,Calm,-,N/A,,Scattered Clouds,0,2013-01-13 21:53:00
2:53 PM,18.0,12.9,81,30.45,10.0,Calm,Calm,-,N/A,,Mostly Cloudy,0,2013-01-13 22:53:00
3:16 PM,19.4,14.0,80,30.33,10.0,Calm,Calm,-,N/A,,Mostly Cloudy,0,2013-01-13 23:16:00
3:53 PM,18.0,12.9,81,30.45,10.0,Calm,Calm,-,N/A,,Mostly Cloudy,0,2013-01-13 23:53:00
4:53 PM,19.0,12.9,77,30.45,10.0,Calm,Calm,-,N/A,,Mostly Cloudy,0,2013-01-14 00:53:00
5:53 PM,19.0,12.0,74,30.45,10.0,South,5.8,-,N/A,,Mostly Cloudy,190,2013-01-14 01:53:00
6:53 PM,16.0,12.0,84,30.46,10.0,South,3.5,-,N/A,,Overcast,170,2013-01-14 02:53:00
7:53 PM,16.0,10.9,81,30.46,10.0,South,3.5,-,N/A,,Overcast,180,2013-01-14 03:53:00
8:53 PM,16.0,10.9,81,30.46,10.0,SSE,5.8,-,N/A,,Overcast,150,2013-01-14 04:53:00
9:53 PM,16.0,10.9,81,30.46,10.0,SE,5.8,-,N/A,,Overcast,140,2013-01-14 05:53:00
10:53 PM,16.0,10.9,81,30.45,5.0,SSE,6.9,-,0.00,Snow,Light Snow,160,2013-01-14 06:53:00
11:53 PM,16.0,12.0,84,30.46,8.0,SSE,5.8,-,0.00,Snow,Light Snow,160,2013-01-14 07:53:00